Powrót do katalogu

KUIPER-00540

AktywnyŁącznośćVLEO
NORAD 69609·PAYLOAD·🇺🇸 United States

Wystrzelony Jun 17, 2026 z Guiana Space Centre

Loading…

Następne Przeloty (najbliższe 24 godziny)

TLE

ŚwieżeSource: CelesTrak SupGP

Epoka: Sep 14, 2026, 21:47 UTC

1 69609C 26140T   26257.90765046  .00002950  00000+0  76910-4 0  2571
2 69609  51.8812 325.0251 0004777 245.6443 152.8214 15.38230677    14

Śledź KUIPER-00540 w czasie rzeczywistym z AllMySat

Download on the App Store